Moline, IL

5:04 PM CDT on October 21, 2017 (GMT -0500)
Quad-City International

Weather History for KMLI - January, 2013

Change the Weather History Date:

Monday, January 28, 2013

  Actual Average Record
Temperature  
Mean Temperature 48 °F 23 °F  
Max Temperature 56 °F 31 °F 57 °F (1914)
Min Temperature 39 °F 14 °F -26 °F (1963)
Degree Days  
Heating Degree Days 17 42  
Month to date heating degree days 1117 1188  
Since 1 July heating degree days 3463 3609  
Cooling Degree Days 0 0  
Month to date cooling degree days 0 0  
Year to date cooling degree days 0 0  
Moisture  
Dew Point 44 °F    
Average Humidity 95    
Maximum Humidity 100    
Minimum Humidity 89    
Precipitation  
Precipitation 0.10 in 0.05 in 1.27 in (2006)
Month to date precipitation 1.37 1.35  
Year to date precipitation 1.37 1.35  
Snow  
Snow 0.00 in 0.40 in - ()
Month to date snowfall 1.6 8.5  
Since 1 July snowfall 6.9 19.0  
Snow Depth 0.00 in    
Sea Level Pressure  
Sea Level Pressure 29.83 in    
Wind  
Wind Speed 9 mph (SSE)    
Max Wind Speed 18 mph    
Max Gust Speed 25 mph    
Visibility 3 miles    
Events Fog , Rain    
T = Trace of Precipitation, MM = Missing Value Source: NWS Daily Summary

Daily Weather History Graph

Daily Weather History Graph

Search for Another Location

Airport or City:

Trip Planner

Search our weather history database for the weather conditions in past years. The results will help you decide how hot, cold, wet, or windy it might be!

Date:

Astronomy

Jan. 28, 2013 Rise Set
Actual Time 7:17 AM CST 5:13 PM CST
Civil Twilight 6:47 AM CST 5:43 PM CST
Nautical Twilight 6:14 AM CST 6:16 PM CST
Astronomical Twilight 5:41 AM CST 6:49 PM CST
Moon 7:10 PM CST (1/28) 7:41 AM CST (1/28)
Length of Visible Light 10h 55m
Length of Day
9h 56m
Full, 98% of the Moon is Illuminated
Jan 28
Full
Feb 3
Last Quarter
Feb 10
New
Feb 17
First Quarter
Feb 25
Full

Hourly Weather History & Observations

Time (CST) Temp. Windchill Dew Point Humidity Pressure Visibility Wind Dir Wind Speed Gust Speed Precip Events Conditions
12:52 AM 46.0 °F 39.9 °F 44.1 °F 93% 29.80 in 7.0 mi SSW 13.8 mph 24.2 mph 0.01 in   Overcast
12:59 AM 46.4 °F 40.4 °F 44.6 °F 93% 29.79 in 7.0 mi SSW 13.8 mph - N/A   Overcast
1:08 AM 46.4 °F 39.8 °F 44.6 °F 93% 29.79 in 7.0 mi SSW 16.1 mph - N/A   Overcast
1:52 AM 48.0 °F - 46.0 °F 93% 29.80 in 8.0 mi SSW 15.0 mph 24.2 mph 0.02 in   Overcast
2:30 AM 48.2 °F - 46.4 °F 93% 29.78 in 9.0 mi SSW 13.8 mph 21.9 mph 0.01 in   Overcast
2:52 AM 48.9 °F - 46.0 °F 90% 29.80 in 9.0 mi SSW 16.1 mph - 0.01 in   Overcast
3:52 AM 48.0 °F - 46.9 °F 96% 29.81 in 3.0 mi SW 10.4 mph - 0.01 in Rain Light Rain
4:36 AM 48.2 °F - 48.2 °F 100% 29.80 in 4.0 mi SW 12.7 mph - 0.00 in   Overcast
4:52 AM 48.9 °F - 48.0 °F 97% 29.82 in 4.0 mi WSW 11.5 mph - 0.01 in   Overcast
5:00 AM 48.2 °F - 48.2 °F 100% 29.81 in 3.0 mi WSW 10.4 mph - N/A   Overcast
5:11 AM 48.2 °F - 48.2 °F 100% 29.82 in 2.5 mi WSW 10.4 mph - N/A   Overcast
5:26 AM 48.2 °F - 46.4 °F 93% 29.82 in 2.5 mi WSW 9.2 mph - N/A   Overcast
5:52 AM 48.0 °F - 46.9 °F 96% 29.85 in 2.0 mi WSW 9.2 mph - 0.01 in   Overcast
6:52 AM 46.9 °F - 46.0 °F 97% 29.88 in 2.0 mi West 11.5 mph - N/A   Overcast
7:04 AM 46.4 °F 41.1 °F 44.6 °F 93% 29.87 in 2.0 mi West 11.5 mph - N/A   Overcast
7:27 AM 44.6 °F 39.2 °F 42.8 °F 93% 29.89 in 0.5 mi WNW 10.4 mph - N/A Fog Fog
7:34 AM 42.8 °F 37.5 °F 42.8 °F 100% 29.89 in 1.5 mi NW 9.2 mph - N/A   Overcast
7:52 AM 43.0 °F 38.2 °F 42.1 °F 97% 29.91 in 1.5 mi WNW 8.1 mph - N/A   Overcast
8:50 AM 39.2 °F 32.5 °F 39.2 °F 100% 29.92 in 0.8 mi NNW 10.4 mph - N/A   Overcast
8:52 AM 39.9 °F 33.9 °F 39.0 °F 97% 29.93 in 0.8 mi NNW 9.2 mph - N/A   Overcast
9:52 AM 39.9 °F - 39.0 °F 97% 29.94 in 0.5 mi Calm Calm - N/A Fog Fog
10:43 AM 39.2 °F 37.0 °F 39.2 °F 100% 29.94 in 1.0 mi NW 3.5 mph - N/A   Overcast
10:52 AM 39.9 °F - 39.0 °F 97% 29.96 in 1.5 mi Calm Calm - N/A   Overcast
11:08 AM 41.0 °F - 39.2 °F 93% 29.94 in 2.0 mi Calm Calm - N/A   Overcast
11:52 AM 41.0 °F 39.0 °F 39.0 °F 93% 29.94 in 2.0 mi East 3.5 mph - N/A   Overcast
12:52 PM 42.1 °F 40.2 °F 39.0 °F 89% 29.92 in 2.0 mi ENE 3.5 mph - N/A   Overcast
1:52 PM 42.1 °F 37.7 °F 39.9 °F 92% 29.90 in 2.0 mi ENE 6.9 mph - N/A   Overcast
2:52 PM 42.1 °F 36.1 °F 39.9 °F 92% 29.89 in 2.0 mi East 10.4 mph - N/A   Overcast
3:52 PM 41.0 °F 34.7 °F 39.2 °F 93% 29.87 in 2.0 mi ENE 10.4 mph - N/A   Overcast
3:59 PM 41.0 °F 34.7 °F 39.2 °F 93% 29.88 in 1.5 mi East 10.4 mph - N/A   Overcast
4:52 PM 41.0 °F 35.8 °F 39.0 °F 93% 29.88 in 1.5 mi East 8.1 mph - N/A   Overcast
5:52 PM 41.0 °F 35.2 °F 39.0 °F 93% 29.87 in 2.0 mi East 9.2 mph - N/A   Overcast
6:52 PM 39.9 °F 34.5 °F 39.9 °F 100% 29.86 in 2.0 mi East 8.1 mph - N/A   Overcast
6:59 PM 39.2 °F 33.6 °F 39.2 °F 100% 29.84 in 0.8 mi East 8.1 mph - N/A   Overcast
7:52 PM 39.9 °F 35.1 °F 39.9 °F 100% 29.84 in 0.5 mi East 6.9 mph - N/A Fog Fog
8:52 PM 41.0 °F 35.8 °F 41.0 °F 100% 29.81 in 0.8 mi East 8.1 mph - N/A   Mist
9:15 PM 42.8 °F 37.5 °F 41.0 °F 93% 29.78 in 0.2 mi East 9.2 mph - N/A Fog Fog
9:40 PM 42.8 °F 37.5 °F 42.8 °F 100% 29.76 in 0.2 mi East 9.2 mph - 0.00 in Fog Fog
9:52 PM 42.1 °F 36.6 °F 42.1 °F 100% 29.76 in 0.2 mi East 9.2 mph - 0.00 in Fog Fog
10:20 PM 44.6 °F 41.4 °F 42.8 °F 93% 29.72 in 0.2 mi East 5.8 mph - 0.02 in Fog , Rain Light Rain
10:33 PM 46.4 °F 43.5 °F 46.4 °F 100% 29.72 in 0.2 mi SE 5.8 mph - N/A Fog Fog
10:45 PM 48.2 °F - 48.2 °F 100% 29.70 in 0.5 mi SE 9.2 mph - 0.02 in Fog Fog
10:52 PM 50.0 °F - 50.0 °F 100% 29.71 in 0.8 mi SSE 11.5 mph - 0.02 in   Mist
10:58 PM 50.0 °F - 50.0 °F 100% 29.70 in 1.5 mi SSE 9.2 mph - N/A   Overcast
11:04 PM 51.8 °F - 51.8 °F 100% 29.70 in 3.0 mi SSE 9.2 mph - N/A   Mostly Cloudy
11:16 PM 51.8 °F - 51.8 °F 100% 29.69 in 5.0 mi SSE 10.4 mph - N/A   Mostly Cloudy
11:52 PM 55.9 °F - 54.0 °F 93% 29.68 in 10.0 mi South 13.8 mph 21.9 mph 0.01 in   Partly Cloudy